Regional Weather Roundup
Issued by NWS

Home | Current Version | Previous Version | Text Only | Print | Product List | Glossary Off
Versions: 1 2 3 4 5 6 7 8 9 10 11 12 13 14 15 16 17 18 19 20 21 22 23 24 25 26 27 28 29 30 31 32 33 34 35 36 37 38 39 40 41 42 43 44 45 46 47 48 49 50

000
ASUS43 KMKX 261211
RWRWI

WISCONSIN REGIONAL WEATHER ROUNDUP
NATIONAL WEATHER SERVICE MILWAUKEE/SULLIVAN WI
600 AM CST FRI DEC 26 2014

NOTE: "FAIR" INDICATES FEW OR NO CLOUDS BELOW 12,000 FEET WITH NO
SIGNIFICANT WEATHER AND/OR OBSTRUCTIONS TO VISIBILITY.

WIZ001-002-006>008-014>016-023>028-261300-
NORTHWEST WISCONSIN

CITY           SKY/WX    TMP DP  RH WIND       PRES   REMARKS
SUPERIOR ARPT  CLOUDY    31  24  78 NE6       29.99R WCI  25
6HR MIN TEMP:  31; 6HR MAX TEMP:  32;

ASHLAND        LGT SNOW  30  29  96 NW3       29.97R FOG
6HR MIN TEMP:  30; 6HR MAX TEMP:  31; 6HR PCP:  0.02;

HAYWARD        CLOUDY    30  28  92 N7        29.93R FOG     WCI  23
6HR MIN TEMP:  30; 6HR MAX TEMP:  31; 6HR PCP: TRACE;

SIREN          CLOUDY    31  29  95 N7        29.93S WCI  24
6HR MIN TEMP:  31; 6HR MAX TEMP:  31;

CUMBERLAND     CLOUDY    30  28  93 NE6       29.90R WCI  24
RICE LAKE      CLOUDY    31  30  95 N8        29.91R FOG     WCI  24
6HR MIN TEMP:  31; 6HR MAX TEMP:  31;

CHETEK         CLOUDY    31  30  94 CALM      29.90R
6HR MIN TEMP:  30; 6HR MAX TEMP:  32;

LADYSMITH      CLOUDY    32  31  94 NE7       29.90S WCI  26
6HR MIN TEMP:  31; 6HR MAX TEMP:  32;

EAU CLAIRE     CLOUDY    31  28  89 N6        29.88R WCI  25
6HR MIN TEMP:  26; 6HR MAX TEMP:  31;

MENOMONIE      CLOUDY    32  31  96 N6        29.89R FOG     WCI  26
6HR MIN TEMP:  28; 6HR MAX TEMP:  32;

NEW RICHMOND   CLOUDY    31  31 100 N8        29.90R FOG     WCI  24
6HR MIN TEMP:  29; 6HR MAX TEMP:  31;

OSCEOLA        CLOUDY    32  32 100 N6        29.95R WCI  26
6HR MIN TEMP:  32; 6HR MAX TEMP:  32;

$$

WIZ003>005-009-010-017-018-261300-
NORTH CENTRAL WISCONSIN

CITY           SKY/WX    TMP DP  RH WIND       PRES   REMARKS
MANITOWISH WTR CLOUDY    28  28 100 CALM      29.91R
6HR MIN TEMP:  24; 6HR MAX TEMP:  29;

ARBOR VITAE    CLOUDY    32  31  95 CALM      29.91R FOG
6HR MIN TEMP:  25; 6HR MAX TEMP:  32;

WOODRUFF       CLOUDY    32  31  95 CALM      29.91R FOG
6HR MIN TEMP:  25; 6HR MAX TEMP:  32;

RHINELANDER    CLOUDY    29  28  96 E3        29.90R
6HR MIN TEMP:  27; 6HR MAX TEMP:  29;

EAGLE RIVER    CLOUDY    29  29 100 CALM      29.90S FOG
6HR MIN TEMP:  27; 6HR MAX TEMP:  29;

LAND O LAKES   CLOUDY    28  28  99 CALM      29.91S
6HR MIN TEMP:  26; 6HR MAX TEMP:  30;

PHILLIPS       CLOUDY    29  28  97 N8        29.88F WCI  21
6HR MIN TEMP:  28; 6HR MAX TEMP:  29;

TOMAHAWK       CLOUDY    29  28  96 CALM      29.89S FOG
6HR MIN TEMP:  28; 6HR MAX TEMP:  29;

MEDFORD        CLOUDY    27  27  97 E3        29.87R FOG
6HR MIN TEMP:  23; 6HR MAX TEMP:  28;

MERRILL        CLOUDY    28  28 100 CALM      29.88S FOG
6HR MIN TEMP:  26; 6HR MAX TEMP:  29;

$$

WIZ029-030-035-036-043>047-261300-
CENTRAL WISCONSIN

CITY           SKY/WX    TMP DP  RH WIND       PRES   REMARKS
WAUSAU         CLEAR     27  25  92 CALM      29.88R FOG
6HR MIN TEMP:  26; 6HR MAX TEMP:  29;

MOSINEE        CLEAR     27  27 100 E3        29.89R FOG
MARSHFIELD     FOG       27  25  92 E5        29.87F VSB 3/4 WCI  22
6HR MIN TEMP:  27; 6HR MAX TEMP:  29;

STEVENS POINT  CLEAR     23  23  99 CALM      29.91R FOG
6HR MIN TEMP:  22; 6HR MAX TEMP:  27;

WAUPACA        PTCLDY    29  28  96 CALM      29.92R FOG
6HR MIN TEMP:  27; 6HR MAX TEMP:  30;

WAUTOMA        PTCLDY    28  28 100 CALM      29.92R
6HR MIN TEMP:  25; 6HR MAX TEMP:  29;

WISC RAPIDS    FOG       25  23  92 CALM      29.91R VSB 3/4
6HR MIN TEMP:  24; 6HR MAX TEMP:  29;

CAMP DOUGLAS   FOG       24  24 100 CALM      29.89R VSB 3/4
6HR MIN TEMP:  24; 6HR MAX TEMP:  29;

$$

WIZ011>013-019>022-031-037>040-048>050-261300-
NORTHEAST WISCONSIN

CITY           SKY/WX    TMP DP  RH WIND       PRES   REMARKS
ANTIGO         CLOUDY    24  24 100 CALM      29.90R FOG
6HR MIN TEMP:  21; 6HR MAX TEMP:  29;

SHAWANO        FOG       28  26  94 CALM      29.92S VSB 3/4
6HR MIN TEMP:  27; 6HR MAX TEMP:  31;

OCONTO         PTCLDY    26  26 100 CALM      29.93S
6HR MIN TEMP:  24; 6HR MAX TEMP:  30;

STURGEON BAY   PTCLDY    36  32  87 S5        29.95R WCI  32
6HR MIN TEMP:  32; 6HR MAX TEMP:  36;

GREEN BAY      MOCLDY    31  30  96 CALM      29.93R FOG
6HR MIN TEMP:  29; 6HR MAX TEMP:  32;

MANITOWOC      CLOUDY    31  29  92 S3        29.95R
6HR MIN TEMP:  29; 6HR MAX TEMP:  32;

APPLETON       PTCLDY    32  32 100 VRB3      29.92R
CLINTONVILLE   PTCLDY    27  27 100 CALM      29.91S FOG
OSHKOSH        MOCLDY    34  31  88 S6        29.92R WCI  29
6HR MIN TEMP:  34; 6HR MAX TEMP:  36;

$$

WIZ032>034-041-042-053>061-261300-
SOUTHWEST WISCONSIN

CITY           SKY/WX    TMP DP  RH WIND       PRES   REMARKS
LA CROSSE      CLEAR     25  22  88 CALM      29.88S FOG
6HR MIN TEMP:  23; 6HR MAX TEMP:  33;

SPARTA         CLEAR     23  23 100 CALM      29.89S
6HR MIN TEMP:  23; 6HR MAX TEMP:  28;

VIROQUA        CLEAR     31  31 100 SE5       29.86S WCI  27
6HR MIN TEMP:  31; 6HR MAX TEMP:  36;

BOSCOBEL       PTCLDY    27  25  92 CALM      29.89S FOG
6HR MIN TEMP:  27; 6HR MAX TEMP:  40;

PRAIRIE DU CHI PTCLDY    32  29  88 E3        29.87S
6HR MIN TEMP:  32; 6HR MAX TEMP:  41;

PLATTEVILLE    CLEAR     36  33  88 CALM      29.91R
6HR MIN TEMP:  36; 6HR MAX TEMP:  38;

$$

WIZ056-057-062-063-064-067-068-261300-
SOUTH CENTRAL WISCONSIN

CITY           SKY/WX    TMP DP  RH WIND       PRES   REMARKS
REEDSBURG      MOCLDY    36  32  87 SE3       29.89R
6HR MIN TEMP:  35; 6HR MAX TEMP:  38;

BARABOO/DELLS  MOCLDY    37  32  82 S9        29.89R WCI  30
6HR MIN TEMP:  35; 6HR MAX TEMP:  38;

LONE ROCK      PTCLDY    37  30  75 E8        29.90R WCI  31
6HR MIN TEMP:  35; 6HR MAX TEMP:  42;

MINERAL POINT  PTCLDY    36  32  87 SE7       29.90R WCI  30
MADISON        MOCLDY    36  33  89 S5        29.91S WCI  32
6HR MIN TEMP:  36; 6HR MAX TEMP:  38;

MIDDLETON      MOCLDY    37  34  87 S5        29.91S WCI  34
6HR MIN TEMP:  37; 6HR MAX TEMP:  39;

WATERTOWN      MOCLDY    35  35  97 S3        29.93S
6HR MIN TEMP:  35; 6HR MAX TEMP:  37;

MONROE         PTCLDY    36  34  93 S15       29.91R WCI  26
JANESVILLE     CLEAR     37  36  93 S6        29.94R WCI  33
$$

WIZ051-052-058>065-066-070>072-261300-
SOUTHEAST WISCONSIN

CITY           SKY/WX    TMP DP  RH WIND       PRES   REMARKS
MILWAUKEE      CLOUDY    39  33  79 SW12      29.96R WCI  32
6HR MIN TEMP:  38; 6HR MAX TEMP:  40;

WAUKESHA       PTCLDY    37  34  87 S7        29.95R WCI  32
MILWAUKEE/TIMM CLOUDY    37  32  81 S6        29.95S WCI  33
RACINE         CLOUDY    39  33  79 SW10      29.98R WCI  32
6HR MIN TEMP:  39; 6HR MAX TEMP:  40;

BURLINGTON     CLOUDY    35  32  88 S10       29.96R WCI  28
6HR MIN TEMP:  35; 6HR MAX TEMP:  37;

KENOSHA        CLOUDY    39  34  82 SW12      29.97R WCI  32
6HR MIN TEMP:  39; 6HR MAX TEMP:  40;

FOND DU LAC    MOCLDY    37  32  82 S9        29.92R WCI  30
6HR MIN TEMP:  37; 6HR MAX TEMP:  38;

SHEBOYGAN      MOCLDY    33  31  92 S5        29.94R WCI  29
6HR MIN TEMP:  32; 6HR MAX TEMP:  37;

WEST BEND      MOCLDY    36  32  87 CALM      29.93F
JUNEAU         PTCLDY    34  32  94 SE6       29.94R WCI  29
6HR MIN TEMP:  34; 6HR MAX TEMP:  36;

$$

LSZ147-162-261300-
LAKE SUPERIOR

STATION/POSITION TIME  TEMP    WIND        PRES    WAVE
                       AIR SEA DIR/SP/G            HT/PER
                 (UTC) (F)     (DEG/KT/KT) (MB)    (FT/S)
DEVILS ISLAND    1200   33     360/ 14/ 15 1015.9R
PORT WING        1100   33      20/ 13/ 15 1014.9R
SAXON HARBOR     1100   31        CALM     1014.2S
$$

LMZ867-665-643>646-261300-
LAKE MICHIGAN

STATION/POSITION TIME  TEMP    WIND        PRES    WAVE


USA.gov is the U.S. government's official web portal to all federal, state and local government web resources and services.